This is the latest recevied weather packets stored in our database for station/object JE0GNV-13. If no packets are shown the sender has not sent any weather packets the latest 10 day(s).
| Time | Temp. | Humidity | Pressure | Rain* | Wind** | Luminosity | Snow |
|---|---|---|---|---|---|---|---|
| 1777805401 | 11.11° C | 95% | 1005.6 hPa | 2.79 mm | - | - | - |
| 1777804802 | 11.11° C | 94% | 1005.6 hPa | 2.79 mm | - | - | - |
| 1777804201 | 11.11° C | 93% | 1005.8 hPa | 2.29 mm | - | - | - |
| 1777803602 | 11.11° C | 93% | 1005.9 hPa | 1.78 mm | - | - | - |
| 1777803001 | 11.67° C | 92% | 1005.9 hPa | 1.52 mm | - | - | - |
| 1777802400 | 11.67° C | 91% | 1005.9 hPa | 1.02 mm | - | - | - |
| 1777801801 | 11.67° C | 89% | 1005.9 hPa | 0.51 mm | - | - | - |
| 1777801201 | 12.22° C | 88% | 1005.9 hPa | 0 mm | - | - | - |
| 1777800600 | 12.22° C | 86% | 1005.9 hPa | 0 mm | - | - | - |
| 1777800000 | 12.78° C | 84% | 1005.8 hPa | 0 mm | - | - | - |
| 1777799401 | 12.78° C | 81% | 1005.8 hPa | 0 mm | - | - | - |
| 1777798801 | 13.33° C | 78% | 1005.5 hPa | 0 mm | - | - | - |
| 1777798201 | 14.44° C | 72% | 1005.5 hPa | 0 mm | - | - | - |
| 1777797602 | 15° C | 65% | 1005.5 hPa | 0 mm | - | - | - |
| 1777797001 | 15° C | 62% | 1005.2 hPa | 0 mm | - | - | - |
| 1777796401 | 15.56° C | 60% | 1005.2 hPa | 0 mm | - | - | - |
| 1777795800 | 16.11° C | 59% | 1005.2 hPa | 0 mm | - | - | - |
| 1777795201 | 16.11° C | 58% | 1005.2 hPa | 0 mm | - | - | - |
| 1777794602 | 16.67° C | 57% | 1005 hPa | 0 mm | - | - | - |
| 1777794000 | 16.67° C | 51% | 1005 hPa | 0 mm | - | - | - |
| 1777793400 | 17.22° C | 44% | 1005.2 hPa | 0 mm | - | - | - |
| 1777792801 | 17.22° C | 42% | 1005.2 hPa | 0 mm | - | - | - |
| 1777792202 | 17.22° C | 45% | 1005.2 hPa | 0 mm | - | - | - |
| 1777791601 | 17.22° C | 51% | 1005.3 hPa | 0 mm | - | - | - |
| 1777791001 | 17.78° C | 53% | 1005.2 hPa | 0 mm | - | - | - |
* Rain latest hour (hover to see other rain measurements)
** Current wind speed in m/s (hover to see current wind gust speed)